• In Belarus
  • List of Countries
  • For 7 days
  • Water Temperature
  • Satellite Maps
  • Weather Map
  • Weather Widgets
  • user-avatar
    Login

    Hourly Weather Viedma

    Today, 16 December, Saturday

    Time Temperature Precipitation Wind Pressure Humidity
    00:00 +27°C° 0 mm 4 mps 746 mmHg 31%
    01:00 +27°C° 0 mm 6 mps 746 mmHg 30%
    02:00 +26°C° 0 mm 8 mps 745 mmHg 30%
    03:00 +26°C° 0 mm 8 mps 745 mmHg 32%
    04:00 +24°C° 0 mm 7 mps 745 mmHg 33%
    05:00 +23°C° 0 mm 7 mps 745 mmHg 35%
    06:00 +26°C° 0 mm 8 mps 745 mmHg 32%
    07:00 +27°C° 0 mm 9 mps 745 mmHg 29%
    08:00 +28°C° 0 mm 10 mps 745 mmHg 26%
    09:00 +29°C° 0 mm 10 mps 745 mmHg 25%
    10:00 +31°C° 0 mm 10 mps 744 mmHg 23%
    11:00 +32°C° 0 mm 10 mps 744 mmHg 22%
    12:00 +32°C° 0 mm 11 mps 744 mmHg 23%
    13:00 +31°C° 0 mm 12 mps 744 mmHg 24%
    14:00 +31°C° 0 mm 13 mps 744 mmHg 25%
    15:00 +24°C° 0.1 mm 13 mps 745 mmHg 39%
    16:00 +19°C° 0.1 mm 12 mps 746 mmHg 52%
    17:00 +13°C° 0.1 mm 12 mps 748 mmHg 65%
    18:00 +12°C° 0.1 mm 10 mps 748 mmHg 66%
    19:00 +12°C° 0.1 mm 8 mps 749 mmHg 66%
    20:00 +11°C° 0.1 mm 7 mps 750 mmHg 66%
    21:00 +11°C° 0 mm 6 mps 751 mmHg 63%
    22:00 +13°C° 0 mm 5 mps 751 mmHg 60%
    23:00 +13°C° 0 mm 4 mps 752 mmHg 57%

    Tomorrow, 17 December, Sunday

    Time Temperature Precipitation Wind Pressure Humidity
    00:00 +13°C° 0 mm 4 mps 753 mmHg 58%
    01:00 +13°C° 0 mm 3 mps 754 mmHg 58%
    02:00 +13°C° 0 mm 3 mps 755 mmHg 59%
    03:00 +13°C° 0 mm 4 mps 756 mmHg 55%
    04:00 +13°C° 0 mm 5 mps 757 mmHg 51%
    05:00 +14°C° 0 mm 6 mps 757 mmHg 47%
    06:00 +15°C° 0 mm 7 mps 758 mmHg 42%
    07:00 +16°C° 0 mm 7 mps 759 mmHg 37%
    08:00 +17°C° 0 mm 7 mps 760 mmHg 32%
    09:00 +18°C° 0 mm 7 mps 760 mmHg 29%
    10:00 +20°C° 0 mm 6 mps 761 mmHg 26%
    11:00 +20°C° 0 mm 5 mps 761 mmHg 23%
    12:00 +21°C° 0 mm 5 mps 761 mmHg 24%
    13:00 +21°C° 0 mm 5 mps 761 mmHg 24%
    14:00 +21°C° 0 mm 4 mps 761 mmHg 25%
    15:00 +21°C° 0 mm 4 mps 761 mmHg 25%
    16:00 +21°C° 0 mm 3 mps 761 mmHg 26%
    17:00 +20°C° 0 mm 3 mps 761 mmHg 27%
    18:00 +19°C° 0 mm 4 mps 761 mmHg 31%
    19:00 +17°C° 0 mm 5 mps 761 mmHg 36%
    20:00 +16°C° 0 mm 6 mps 761 mmHg 40%
    21:00 +16°C° 0 mm 6 mps 761 mmHg 42%
    22:00 +16°C° 0 mm 7 mps 761 mmHg 44%
    23:00 +15°C° 0 mm 7 mps 761 mmHg 47%

    Day after tomorrow, 18 December, Monday

    Time Temperature Precipitation Wind Pressure Humidity
    00:00 +15°C° 0 mm 7 mps 761 mmHg 48%
    01:00 +15°C° 0 mm 8 mps 760 mmHg 50%
    02:00 +15°C° 0 mm 8 mps 759 mmHg 52%
    03:00 +15°C° 0 mm 8 mps 759 mmHg 52%
    04:00 +15°C° 0 mm 7 mps 759 mmHg 52%
    05:00 +15°C° 0 mm 7 mps 759 mmHg 52%
    06:00 +17°C° 0 mm 7 mps 759 mmHg 43%
    07:00 +20°C° 0 mm 7 mps 759 mmHg 34%
    08:00 +22°C° 0 mm 8 mps 759 mmHg 24%
    09:00 +24°C° 0 mm 7 mps 759 mmHg 21%
    10:00 +27°C° 0 mm 7 mps 758 mmHg 18%
    11:00 +29°C° 0 mm 6 mps 758 mmHg 15%
    12:00 +30°C° 0 mm 6 mps 758 mmHg 15%
    13:00 +32°C° 0 mm 5 mps 757 mmHg 15%
    14:00 +33°C° 0 mm 4 mps 757 mmHg 15%
    15:00 +32°C° 0 mm 5 mps 756 mmHg 16%
    16:00 +32°C° 0 mm 5 mps 756 mmHg 17%
    17:00 +32°C° 0 mm 5 mps 755 mmHg 19%
    18:00 +30°C° 0 mm 5 mps 755 mmHg 22%
    19:00 +29°C° 0 mm 6 mps 755 mmHg 25%
    20:00 +27°C° 0 mm 6 mps 755 mmHg 28%
    21:00 +27°C° 0 mm 7 mps 755 mmHg 29%
    22:00 +26°C° 0 mm 8 mps 755 mmHg 30%
    23:00 +26°C° 0 mm 9 mps 755 mmHg 31%

    19 December, Tuesday

    Time Temperature Precipitation Wind Pressure Humidity
    00:00 +26°C° 0 mm 9 mps 755 mmHg 30%
    01:00 +24°C° 0 mm 9 mps 755 mmHg 28%
    02:00 +24°C° 0 mm 9 mps 755 mmHg 26%
    03:00 +24°C° 0 mm 9 mps 755 mmHg 27%
    04:00 +23°C° 0 mm 8 mps 756 mmHg 28%
    05:00 +23°C° 0 mm 8 mps 756 mmHg 29%
    06:00 +24°C° 0 mm 8 mps 756 mmHg 28%
    07:00 +27°C° 0 mm 7 mps 757 mmHg 27%
    08:00 +28°C° 0 mm 7 mps 757 mmHg 26%
    09:00 +29°C° 0 mm 6 mps 757 mmHg 25%
    10:00 +32°C° 0 mm 5 mps 757 mmHg 24%
    11:00 +34°C° 0 mm 5 mps 757 mmHg 23%
    12:00 +34°C° 0 mm 5 mps 756 mmHg 23%
    13:00 +34°C° 0 mm 6 mps 756 mmHg 23%
    14:00 +35°C° 0 mm 6 mps 755 mmHg 23%
    15:00 +35°C° 0 mm 6 mps 755 mmHg 24%
    16:00 +34°C° 0 mm 7 mps 754 mmHg 26%
    17:00 +34°C° 0 mm 7 mps 754 mmHg 27%
    18:00 +32°C° 0 mm 7 mps 754 mmHg 30%
    19:00 +30°C° 0 mm 7 mps 754 mmHg 33%
    20:00 +29°C° 0 mm 7 mps 754 mmHg 37%
    21:00 +28°C° 0.5 mm 7 mps 754 mmHg 39%
    22:00 +28°C° 0.5 mm 7 mps 753 mmHg 42%
    23:00 +27°C° 0.5 mm 7 mps 753 mmHg 44%

    20 December, Wednesday

    Time Temperature Precipitation Wind Pressure Humidity
    00:00 +27°C° 0.4 mm 7 mps 753 mmHg 44%
    01:00 +27°C° 0.4 mm 8 mps 752 mmHg 45%
    02:00 +27°C° 0.4 mm 9 mps 752 mmHg 45%
    03:00 +27°C° 0.2 mm 9 mps 752 mmHg 48%
    04:00 +26°C° 0.2 mm 9 mps 752 mmHg 52%
    05:00 +26°C° 0.2 mm 9 mps 752 mmHg 55%
    06:00 +27°C° 0.1 mm 9 mps 751 mmHg 52%
    07:00 +28°C° 0.1 mm 10 mps 751 mmHg 49%
    08:00 +29°C° 0.1 mm 11 mps 751 mmHg 45%
    09:00 +32°C° 0 mm 11 mps 751 mmHg 42%
    10:00 +34°C° 0 mm 11 mps 750 mmHg 38%
    11:00 +36°C° 0 mm 11 mps 750 mmHg 34%
    12:00 +37°C° 0.1 mm 11 mps 749 mmHg 31%
    13:00 +38°C° 0.1 mm 10 mps 748 mmHg 28%
    14:00 +39°C° 0.1 mm 10 mps 747 mmHg 26%
    15:00 +38°C° 0.4 mm 9 mps 747 mmHg 28%
    16:00 +37°C° 0.4 mm 8 mps 746 mmHg 31%
    17:00 +35°C° 0.4 mm 7 mps 745 mmHg 33%
    18:00 +34°C° 0.7 mm 6 mps 745 mmHg 35%
    19:00 +34°C° 0.7 mm 5 mps 745 mmHg 36%
    20:00 +33°C° 0.7 mm 4 mps 745 mmHg 38%
    21:00 +30°C° 0.2 mm 4 mps 746 mmHg 43%
    22:00 +29°C° 0.2 mm 4 mps 746 mmHg 48%
    23:00 +27°C° 0.2 mm 3 mps 747 mmHg 52%

    21 December, Thursday

    Time Temperature Precipitation Wind Pressure Humidity
    00:00 +27°C° 0.1 mm 4 mps 747 mmHg 51%
    01:00 +26°C° 0.1 mm 4 mps 747 mmHg 50%
    02:00 +26°C° 0.1 mm 4 mps 747 mmHg 49%
    03:00 +25°C° 0 mm 5 mps 747 mmHg 48%
    04:00 +25°C° 0 mm 5 mps 748 mmHg 48%
    05:00 +23°C° 0 mm 6 mps 748 mmHg 47%
    06:00 +23°C° 0 mm 6 mps 749 mmHg 44%
    07:00 +22°C° 0 mm 7 mps 750 mmHg 40%
    08:00 +22°C° 0 mm 8 mps 751 mmHg 37%
    09:00 +22°C° 0 mm 7 mps 752 mmHg 34%
    10:00 +23°C° 0 mm 7 mps 752 mmHg 30%
    11:00 +23°C° 0 mm 6 mps 753 mmHg 27%
    12:00 +25°C° 0 mm 5 mps 753 mmHg 25%
    13:00 +26°C° 0 mm 5 mps 753 mmHg 23%
    14:00 +26°C° 0 mm 5 mps 753 mmHg 21%
    15:00 +26°C° 0 mm 5 mps 753 mmHg 21%
    16:00 +26°C° 0 mm 5 mps 753 mmHg 22%
    17:00 +26°C° 0 mm 5 mps 753 mmHg 22%
    18:00 +25°C° 0 mm 5 mps 753 mmHg 27%
    19:00 +22°C° 0 mm 6 mps 753 mmHg 32%
    20:00 +20°C° 0 mm 7 mps 753 mmHg 37%
    21:00 +20°C° 0 mm 7 mps 754 mmHg 39%
    22:00 +18°C° 0 mm 7 mps 754 mmHg 40%
    23:00 +18°C° 0 mm 8 mps 754 mmHg 42%
    Show more